Location: downtown San Diego
(32.7310°N, 117.1990°W)
Time: 12:46:49
(UTC-07:00)

Cosmos 2228 - Pass Details

Date: 14 June 2018
Orbit: 590 x 618 km, 82.5° (Epoch: 15 October)

Event Time Altitude Azimuth Distance (km) Brightness Sun altitude
Rises 21:06:23 0° 350° (N) 2,881 7.3 -12.8°
Reaches altitude 10° 21:08:37 10° 348° (NNW) 1,976 6.4 -13.1°
Maximum altitude 21:12:58 68° 266° (W) 666 3.3 -13.9°
Drops below altitude 10° 21:17:18 10° 183° (S) 1,972 5.3 -14.5°
Enters shadow 21:17:26 - 183° (S) 2,026 5.3 -14.6°
